STARLINK-3688 (52310 NORAD) Tracking and Keplerian Element Data

This shows tracking and keplerian element data for the satellite.

Feedback or suggestion? Click here.




ElementValue
Catalog52310
NameSTARLINK-3688
Epoch Orbit130
Epoch Day167.08334491
Epoch Year2022
RAAN100.6242
Inclination53.2159
Eccentricity0.0003887
Argument of Perigee8.7184
Mean Anonmoly305.598
Mean Motion15.73222295
Decay Rate0.00045899
L11 52310U 22041BB 22167.08334491 .00045899 00000+0 32926-3 0 9999
L22 52310 53.2159 100.6242 0003887 8.7184 305.5980 15.73222295 1309

Live tracking and technical data element details for STARLINK-3688 (NORAD 52310). STARLINK-3688 can be tracked NOW for your location showing map with azimuth and elevation plus other details from your city location.

Track the satellite on the map from your city or location and see movement details for azimuth, elevation, latitude, longitude, range, height, and movement on the map or in text.







IsCatalogInMostPopularTable: catalog: 52310, numindb: 7
Update: records affected: 1



GetName: 52310 STARLINK-3688

Hit Count: updated at: Mon, 27 Jun 2022 05:20:37 GMT